Location: Piotrkow Trybunalski
(51.4000°N, 19.6830°E)
Time: 16:20:20
(UTC+02:00)

Transit 4A - Pass Details

Date: 08 December 2023
Orbit: 871 x 971 km, 66.8° (Epoch: 25 May)

Event Time Altitude Azimuth Distance (km) Brightness Sun altitude
Exits shadow 02:46:51 12° 117° (ESE) 2,423 10.4 -43.1°
Drops below altitude 10° 02:47:17 10° 118° (ESE) 2,570 10.5 -43.0°
Sets 02:49:49 0° 124° (SE) 3,494 11.3 -42.6°
